#timestamp,LO_Frequency,Hit,StdDev 
1610744415.7,286047000.6,N
1610744435.5,286047003.2,N
1610744455.4,286046999.1,N
1610744475.2,286046996.1,N
1610744495.1,286046999.5,N
1610744496.0,286046999.5,N
1610744515.8,286046995.7,N
1610744535.6,286046991.2,N
1610744555.5,286046985.3,N
1610744575.3,286046984.5,N
1610744595.1,286046988.4,N
1610744615.9,286046983.0,N
1610744635.7,286046982.0,N
1610744655.6,286046980.6,N
1610744675.4,286046975.7,N
1610744695.2,286046972.5,N
1610744715.1,286046967.9,N
1610744716.0,286046967.9,N
1610744735.8,286046975.3,N
1610744755.7,286046977.0,N
1610744775.5,286046975.8,N
1610744795.3,286046978.4,N
1610744815.2,286046970.2,N
1610744835.9,286046969.1,N
1610744855.7,286046969.6,N
1610744875.6,286046970.2,N
1610744895.4,286046970.2,N
1610744915.3,286046972.0,N
1610744935.1,286046972.0,N
1610744936.0,286046972.0,N
1610744955.8,286046976.9,N
1610744975.7,286046975.1,N
1610744995.5,286046975.5,N
1610745015.3,286046972.6,N
1610745035.2,286046971.0,Y
1610745055.0,286046989.0,P
1610745055.9,286046989.0,N
1610745075.8,286046987.9,N
1610745095.6,286046989.1,N
1610745115.4,286046990.9,N
1610745135.3,286046988.9,N
1610745155.1,286046987.6,Y
1610745175.9,286046999.7,P
1610745195.7,286047000.2,N
1610745215.5,286047000.7,N
1610745235.4,286047005.5,N
1610745255.2,286047007.9,N
1610745275.0,286047013.9,N
1610745275.9,286047013.9,N
1610745295.8,286047013.0,N
1610745315.6,286047012.0,N
1610745335.5,286047009.2,N
1610745355.3,286047010.7,N
1610745375.1,286047016.5,N
1610745395.9,286047011.5,N
1610745415.7,286047011.5,N
1610745435.5,286047012.4,N
1610745455.4,286047011.1,N
1610745475.2,286047010.0,N
1610745495.0,286047009.0,N
1610745496.0,286047009.0,N
1610745515.8,286047002.9,N
1610745535.6,286047006.8,N
1610745555.5,286047007.0,N
1610745575.3,286047010.5,N
1610745595.1,286047015.0,N
1610745615.9,286047021.1,Y
1610745635.7,286047017.9,P
1610745655.6,286047022.5,P
1610745675.4,286047027.8,P
1610745695.2,286047024.0,Y
1610745715.1,286046999.1,P
1610745716.0,286046999.1,N
1610745735.8,286046996.6,N
1610745755.7,286046997.0,N
1610745775.5,286046992.0,N
1610745795.3,286046989.3,N
1610745815.2,286046982.2,N
1610745835.0,286046986.5,N
1610745835.9,286046986.5,N
1610745855.8,286046987.9,N
1610745875.6,286046987.0,N
1610745895.4,286046982.9,N
1610745915.3,286046982.1,N
1610745935.1,286046985.1,N
1610745955.9,286046982.8,N
1610745975.7,286046979.3,N
1610745995.5,286046981.3,N
1610746015.4,286046986.4,N
1610746035.2,286046985.6,N
1610746055.0,286046981.3,N
1610746055.9,286046981.3,N
1610746075.8,286046981.9,N
1610746095.6,286046981.6,N
1610746115.5,286046979.2,N
1610746135.3,286046978.3,N
1610746155.1,286046979.5,N
1610746175.9,286046974.8,N
1610746195.7,286046971.3,Y
1610746215.5,286046984.6,P
1610746235.4,286046992.6,P
1610746255.2,286046990.5,N
1610746275.1,286046993.5,N
1610746276.0,286046993.5,N
1610746295.8,286046997.5,N
1610746315.6,286047005.8,N
1610746335.5,286046998.8,N
1610746355.3,286046998.9,N
1610746375.1,286047002.3,N
1610746395.9,286046996.5,N
1610746415.7,286046990.7,N
1610746435.6,286046991.1,N
1610746455.4,286046996.4,N
1610746475.2,286046994.1,N
1610746495.1,286046987.0,N
1610746496.0,286046987.0,N
1610746515.8,286046986.9,N
1610746535.6,286046988.4,N
1610746555.5,286046983.5,N
1610746575.3,286046982.8,N
1610746595.2,286046977.7,Y
1610746615.9,286046990.0,P
1610746635.7,286046991.3,P
1610746655.6,286046988.6,P
1610746675.4,286046988.3,Y
1610746695.3,286046997.5,P
1610746715.1,286047000.9,N
1610746716.0,286047000.9,N
1610746735.8,286047008.4,N
1610746755.7,286047010.5,N
1610746775.5,286047003.0,N
1610746795.3,286047010.4,N
1610746815.2,286047006.4,N
1610746835.0,286047010.8,N
1610746835.9,286047010.8,N
1610746855.8,286047007.0,N
1610746875.6,286047006.8,N
1610746895.4,286047018.2,Y
1610746915.3,286047007.2,P
1610746935.1,286047000.4,N
1610746955.8,286046997.2,N
1610746975.7,286046995.6,N
1610746995.5,286046997.6,N
1610747015.4,286047004.2,N
1610747035.2,286047002.7,N
1610747055.0,286046996.2,N
1610747055.9,286046996.2,N
1610747075.8,286046999.5,N
1610747095.6,286047005.4,N
1610747115.5,286047001.0,N
1610747135.3,286047010.9,N
1610747155.1,286047010.4,N
1610747175.9,286047003.0,N
1610747195.7,286047002.5,N
1610747215.6,286047002.2,N
1610747235.4,286047010.4,N
1610747255.2,286047003.7,N
1610747275.1,286047006.7,N
1610747276.0,286047006.7,N
1610747295.8,286047012.1,N
1610747315.6,286047009.7,N
1610747335.5,286047010.0,N
1610747355.3,286047008.3,N
1610747375.2,286047008.7,N
1610747395.9,286047009.6,N
1610747415.7,286047007.5,N
1610747435.6,286047005.4,N
1610747455.4,286047007.0,N
1610747475.3,286047008.3,N
1610747495.1,286047007.6,N
1610747496.0,286047007.6,N
1610747515.8,286047008.2,N
1610747535.7,286047006.7,N
1610747555.5,286047000.5,N
1610747575.4,286047005.3,N
1610747595.2,286047009.1,N
1610747615.0,286047000.7,N
1610747615.9,286047000.7,N
1610747635.8,286047000.6,N
1610747655.6,286047007.0,N
1610747675.4,286047005.1,N
1610747695.3,286047006.5,N
1610747715.1,286047000.7,N
1610747735.9,286047002.2,N
1610747755.7,286047000.6,N
1610747775.5,286047000.1,N
1610747795.4,286047004.6,N
1610747815.2,286047004.9,N
1610747835.1,286047001.1,N
1610747836.0,286047001.1,N
1610747855.8,286047005.2,N
1610747875.6,286047009.7,N
1610747895.5,286047005.1,N
1610747915.3,286047008.5,N
1610747935.1,286047008.3,N
1610747955.9,286047010.8,Y
1610747975.7,286046998.8,P
1610747995.6,286046997.8,N
